sat.trackr.live / text

‹ back to catalog

SHIYAN-28B 02

NORAD 65226 · 2025-177A

PAYLOAD ACTIVE UNKNOWN

§ Identity

Operator
Country
PRC
Launch date
2025-08-17
Launch site
XICLF
Launch vehicle
Mass (kg)
RCS (m²)

External: N2YO · Heavens-Above · Gunter

§ Orbital elements

Epoch: 2026-05-25T05:02:27.502656Z

Period
100.74 min
Inclination
10.9997°
Eccentricity
0.0003356
Mean motion
14.29391201 rev/d
Perigee alt
791.4 km
Apogee alt
796.2 km
Semi-major
7,171.9 km
B*
5.8930e-5
RAAN
83.5121°
Arg perigee
6.7906°
Mean anomaly
353.2367°
Rev number
4,024

§ Raw data

SHIYAN-28B 021 65226U 25177A   26145.21004054  .00000584  00000+0  58930-4 0  99922 65226  10.9997  83.5121 0003356   6.7906 353.2367 14.29391201 40244

JSON: /api/v1/satellites/65226 · /tle

For live sub-satellite position, see the globe view (requires WebGL).

§ Visibility from observer

Set your observer location to see the next 7 days of passes ≥ 10°. The values pass through the URL so the page stays shareable.

No JS? Fill the form by hand. The geolocation button needs JavaScript.